Time,TemperatureF,DewpointF,PressureIn,WindDirection,WindDirectionDegrees,WindSpeedMPH,WindSpeedGustMPH,Humidity,HourlyPrecipIn,Conditions,Clouds,dailyrainin,SoftwareType,DateUTC
2013-12-29 00:00:00,30.9,28.0,30.05,SSW,212,1.0,1.0,89,0.00,,,0.00,Wunderground v.1.15,2013-12-29 04:00:00,
2013-12-29 00:10:00,30.9,28.0,30.04,WSW,238,1.0,15.0,89,0.00,,,0.00,Wunderground v.1.15,2013-12-29 04:10:00,
2013-12-29 00:20:00,30.9,28.0,30.05,WSW,252,1.0,1.0,89,0.00,,,0.00,Wunderground v.1.15,2013-12-29 04:20:00,
2013-12-29 00:30:00,30.9,28.0,30.06,WSW,238,1.0,1.0,89,0.00,,,0.00,Wunderground v.1.15,2013-12-29 04:30:00,
2013-12-29 00:40:00,30.9,28.0,30.06,SW,226,1.0,15.0,89,0.00,,,0.00,Wunderground v.1.15,2013-12-29 04:40:00,
2013-12-29 00:50:00,30.9,28.0,30.06,SSW,211,2.0,2.0,89,0.00,,,0.00,Wunderground v.1.15,2013-12-29 04:50:00,
2013-12-29 01:00:00,30.9,27.8,30.06,SSW,212,2.0,2.0,88,0.00,,,0.00,Wunderground v.1.15,2013-12-29 05:00:00,
2013-12-29 01:10:00,30.8,27.7,30.06,SW,222,1.0,15.0,88,0.00,,,0.00,Wunderground v.1.15,2013-12-29 05:10:00,
2013-12-29 01:20:00,30.8,27.7,30.07,SSW,203,1.0,15.0,88,0.00,,,0.00,Wunderground v.1.15,2013-12-29 05:20:00,
2013-12-29 01:30:00,30.7,27.6,30.08,SW,224,1.0,15.0,88,0.00,,,0.00,Wunderground v.1.15,2013-12-29 05:30:00,
2013-12-29 01:40:00,30.6,27.7,30.08,WSW,248,1.0,15.0,89,0.00,,,0.00,Wunderground v.1.15,2013-12-29 05:40:00,
2013-12-29 01:50:00,30.5,27.4,30.08,SSW,207,1.0,1.0,88,0.00,,,0.00,Wunderground v.1.15,2013-12-29 05:50:00,
2013-12-29 02:00:00,30.4,27.3,30.08,West,262,1.0,15.0,88,0.00,,,0.00,Wunderground v.1.15,2013-12-29 06:00:00,
2013-12-29 02:10:00,30.4,27.3,30.08,SW,215,1.0,1.0,88,0.00,,,0.00,Wunderground v.1.15,2013-12-29 06:10:00,
2013-12-29 02:20:00,30.2,27.3,30.09,WSW,253,1.0,15.0,89,0.00,,,0.00,Wunderground v.1.15,2013-12-29 06:20:00,
2013-12-29 02:30:00,29.9,27.1,30.09,WSW,249,1.0,15.0,89,0.00,,,0.00,Wunderground v.1.15,2013-12-29 06:30:00,
2013-12-29 02:40:00,29.6,26.8,30.09,WSW,239,1.0,15.0,89,0.00,,,0.00,Wunderground v.1.15,2013-12-29 06:40:00,
2013-12-29 02:50:00,29.2,26.4,30.09,West,264,1.0,15.0,89,0.00,,,0.00,Wunderground v.1.15,2013-12-29 06:50:00,
2013-12-29 03:00:00,28.9,26.1,30.10,WSW,252,1.0,1.0,89,0.00,,,0.00,Wunderground v.1.15,2013-12-29 07:00:00,
2013-12-29 03:10:00,28.7,26.1,30.10,WSW,255,1.0,1.0,90,0.00,,,0.00,Wunderground v.1.15,2013-12-29 07:10:00,
2013-12-29 03:20:00,28.2,25.6,30.10,WSW,248,0.0,15.0,90,0.00,,,0.00,Wunderground v.1.15,2013-12-29 07:20:00,
2013-12-29 03:30:00,28.0,25.4,30.10,WSW,248,1.0,1.0,90,0.00,,,0.00,Wunderground v.1.15,2013-12-29 07:30:00,
2013-12-29 03:40:00,27.6,25.1,30.11,SW,227,0.0,15.0,90,0.00,,,0.00,Wunderground v.1.15,2013-12-29 07:40:00,
2013-12-29 03:50:00,27.3,25.0,30.11,SW,236,0.0,15.0,91,0.00,,,0.00,Wunderground v.1.15,2013-12-29 07:50:00,
2013-12-29 04:00:00,27.4,25.4,30.12,West,274,0.0,15.0,92,0.00,,,0.00,Wunderground v.1.15,2013-12-29 08:00:00,
2013-12-29 04:10:00,28.0,25.7,30.13,WNW,301,1.0,1.0,91,0.00,,,0.00,Wunderground v.1.15,2013-12-29 08:10:00,
2013-12-29 04:20:00,28.1,25.8,30.14,NNE,25,1.0,15.0,91,0.00,,,0.00,Wunderground v.1.15,2013-12-29 08:20:00,
2013-12-29 04:30:00,27.6,24.5,30.14,WSW,246,3.0,3.0,88,0.00,,,0.00,Wunderground v.1.15,2013-12-29 08:30:00,
2013-12-29 04:40:00,27.2,23.6,30.15,NW,321,3.0,15.0,86,0.00,,,0.00,Wunderground v.1.15,2013-12-29 08:40:00,
2013-12-29 04:50:00,27.0,23.4,30.15,West,280,2.0,15.0,86,0.00,,,0.00,Wunderground v.1.15,2013-12-29 08:50:00,
2013-12-29 05:00:00,26.7,23.4,30.16,NNW,347,3.0,3.0,87,0.00,,,0.00,Wunderground v.1.15,2013-12-29 09:00:00,
2013-12-29 05:10:00,26.1,22.5,30.17,WNW,301,3.0,3.0,86,0.00,,,0.00,Wunderground v.1.15,2013-12-29 09:10:00,
2013-12-29 05:20:00,25.7,21.8,30.18,SE,127,3.0,3.0,85,0.00,,,0.00,Wunderground v.1.15,2013-12-29 09:20:00,
2013-12-29 05:30:00,25.3,21.4,30.18,NNW,334,2.0,2.0,85,0.00,,,0.00,Wunderground v.1.15,2013-12-29 09:30:00,
2013-12-29 05:40:00,24.9,21.0,30.19,West,277,3.0,3.0,85,0.00,,,0.00,Wunderground v.1.15,2013-12-29 09:40:00,
2013-12-29 05:50:00,24.4,20.5,30.21,SW,232,3.0,3.0,85,0.00,,,0.00,Wunderground v.1.15,2013-12-29 09:50:00,
2013-12-29 06:00:00,24.0,20.1,30.22,NW,315,3.0,15.0,85,0.00,,,0.00,Wunderground v.1.15,2013-12-29 10:00:00,
2013-12-29 06:10:00,23.7,19.9,30.23,NNW,328,3.0,15.0,85,0.00,,,0.00,Wunderground v.1.15,2013-12-29 10:10:00,
2013-12-29 06:20:00,23.3,19.5,30.23,NE,34,2.0,15.0,85,0.00,,,0.00,Wunderground v.1.15,2013-12-29 10:20:00,
2013-12-29 06:30:00,23.0,18.9,30.23,West,273,2.0,15.0,84,0.00,,,0.00,Wunderground v.1.15,2013-12-29 10:30:00,
2013-12-29 06:40:00,22.8,18.4,30.24,West,273,2.0,2.0,83,0.00,,,0.00,Wunderground v.1.15,2013-12-29 10:40:00,
2013-12-29 06:50:00,22.7,18.0,30.25,WSW,257,2.0,2.0,82,0.00,,,0.00,Wunderground v.1.15,2013-12-29 10:50:00,
2013-12-29 07:00:00,22.6,17.6,30.25,West,280,2.0,15.0,81,0.00,,,0.00,Wunderground v.1.15,2013-12-29 11:00:00,
2013-12-29 07:10:00,22.5,17.0,30.25,WNW,294,2.0,2.0,79,0.00,,,0.00,Wunderground v.1.15,2013-12-29 11:10:00,
2013-12-29 07:20:00,22.4,16.9,30.25,NW,319,2.0,15.0,79,0.00,,,0.00,Wunderground v.1.15,2013-12-29 11:20:00,
2013-12-29 07:30:00,22.4,16.9,30.26,West,277,2.0,2.0,79,0.00,,,0.00,Wunderground v.1.15,2013-12-29 11:30:00,
2013-12-29 07:40:00,22.3,16.2,30.27,West,262,2.0,2.0,77,0.00,,,0.00,Wunderground v.1.15,2013-12-29 11:40:00,
2013-12-29 07:50:00,22.1,15.7,30.27,West,280,1.0,15.0,76,0.00,,,0.00,Wunderground v.1.15,2013-12-29 11:50:00,
2013-12-29 08:00:00,22.0,15.9,30.29,NNW,330,2.0,15.0,77,0.00,,,0.00,Wunderground v.1.15,2013-12-29 12:00:00,
2013-12-29 08:10:00,21.9,16.1,30.28,NNE,20,2.0,15.0,78,0.00,,,0.00,Wunderground v.1.15,2013-12-29 12:10:00,
2013-12-29 08:20:00,21.9,16.4,30.30,NW,309,1.0,15.0,79,0.00,,,0.00,Wunderground v.1.15,2013-12-29 12:20:00,
2013-12-29 08:30:00,21.9,16.1,30.30,NNW,328,2.0,15.0,78,0.00,,,0.00,Wunderground v.1.15,2013-12-29 12:30:00,
2013-12-29 08:40:00,21.9,16.1,30.30,NW,321,3.0,3.0,78,0.00,,,0.00,Wunderground v.1.15,2013-12-29 12:40:00,
2013-12-29 08:50:00,21.9,16.1,30.29,NNW,340,2.0,2.0,78,0.00,,,0.00,Wunderground v.1.15,2013-12-29 12:50:00,
2013-12-29 09:00:00,21.9,15.8,30.30,NW,325,2.0,15.0,77,0.00,,,0.00,Wunderground v.1.15,2013-12-29 13:00:00,
2013-12-29 09:10:00,21.7,15.0,30.29,NE,37,3.0,15.0,75,0.00,,,0.00,Wunderground v.1.15,2013-12-29 13:10:00,
2013-12-29 09:20:00,21.6,14.3,30.31,WNW,287,3.0,3.0,73,0.00,,,0.00,Wunderground v.1.15,2013-12-29 13:20:00,
2013-12-29 09:30:00,21.6,14.9,30.30,NW,315,2.0,15.0,75,0.00,,,0.00,Wunderground v.1.15,2013-12-29 13:30:00,
2013-12-29 09:40:00,21.6,16.4,30.31,North,5,3.0,15.0,80,0.00,,,0.00,Wunderground v.1.15,2013-12-29 13:40:00,
2013-12-29 09:50:00,21.7,16.8,30.33,NW,309,2.0,15.0,81,0.00,,,0.00,Wunderground v.1.15,2013-12-29 13:50:00,
2013-12-29 10:00:00,21.8,17.2,30.33,NNW,329,2.0,15.0,82,0.00,,,0.00,Wunderground v.1.15,2013-12-29 14:00:00,
2013-12-29 10:10:00,21.9,17.2,30.33,NW,318,2.0,2.0,82,0.00,,,0.00,Wunderground v.1.15,2013-12-29 14:10:00,
2013-12-29 10:20:00,22.1,17.4,30.33,NNW,332,2.0,15.0,82,0.00,,,0.00,Wunderground v.1.15,2013-12-29 14:20:00,
2013-12-29 10:30:00,22.2,17.3,30.34,West,281,1.0,1.0,81,0.00,,,0.00,Wunderground v.1.15,2013-12-29 14:30:00,
2013-12-29 10:40:00,22.1,16.9,30.35,North,4,2.0,15.0,80,0.00,,,0.00,Wunderground v.1.15,2013-12-29 14:40:00,
2013-12-29 10:50:00,22.1,17.2,30.34,North,357,2.0,2.0,81,0.00,,,0.00,Wunderground v.1.15,2013-12-29 14:50:00,
2013-12-29 11:00:00,22.4,17.5,30.33,NW,309,1.0,15.0,81,0.00,,,0.00,Wunderground v.1.15,2013-12-29 15:00:00,
2013-12-29 11:10:00,22.1,16.9,30.33,NNW,339,3.0,15.0,80,0.00,,,0.00,Wunderground v.1.15,2013-12-29 15:10:00,
2013-12-29 11:20:00,22.0,16.8,30.34,NW,309,2.0,15.0,80,0.00,,,0.00,Wunderground v.1.15,2013-12-29 15:20:00,
2013-12-29 11:30:00,21.9,16.7,30.33,NE,56,2.0,2.0,80,0.00,,,0.00,Wunderground v.1.15,2013-12-29 15:30:00,
2013-12-29 11:40:00,21.6,16.4,30.32,NW,323,3.0,15.0,80,0.00,,,0.00,Wunderground v.1.15,2013-12-29 15:40:00,
2013-12-29 11:50:00,21.7,16.8,30.32,North,349,3.0,15.0,81,0.00,,,0.00,Wunderground v.1.15,2013-12-29 15:50:00,
2013-12-29 12:00:00,21.7,16.8,30.32,NNW,328,2.0,15.0,81,0.00,,,0.00,Wunderground v.1.15,2013-12-29 16:00:00,
2013-12-29 12:10:00,21.6,16.7,30.33,NNW,328,2.0,15.0,81,0.00,,,0.00,Wunderground v.1.15,2013-12-29 16:10:00,
2013-12-29 12:20:00,21.2,16.6,30.33,NNW,340,2.0,2.0,82,0.00,,,0.00,Wunderground v.1.15,2013-12-29 16:20:00,
2013-12-29 12:30:00,20.9,16.8,30.33,North,351,2.0,15.0,84,0.00,,,0.00,Wunderground v.1.15,2013-12-29 16:30:00,
2013-12-29 12:40:00,20.9,16.8,30.32,North,355,1.0,1.0,84,0.00,,,0.00,Wunderground v.1.15,2013-12-29 16:40:00,
2013-12-29 12:50:00,20.8,16.7,30.33,NW,325,2.0,15.0,84,0.00,,,0.00,Wunderground v.1.15,2013-12-29 16:50:00,
2013-12-29 13:00:00,20.6,17.1,30.32,NW,312,2.0,2.0,86,0.00,,,0.00,Wunderground v.1.15,2013-12-29 17:00:00,
2013-12-29 13:10:00,20.7,17.2,30.33,North,1,1.0,15.0,86,0.00,,,0.00,Wunderground v.1.15,2013-12-29 17:10:00,
2013-12-29 13:20:00,20.6,17.3,30.33,North,6,2.0,15.0,87,0.00,,,0.00,Wunderground v.1.15,2013-12-29 17:20:00,
2013-12-29 13:30:00,20.5,17.2,30.32,NNE,15,1.0,1.0,87,0.00,,,0.00,Wunderground v.1.15,2013-12-29 17:30:00,
2013-12-29 13:40:00,21.0,17.5,30.32,NNW,345,0.0,15.0,86,0.00,,,0.00,Wunderground v.1.15,2013-12-29 17:40:00,
2013-12-29 13:50:00,21.1,17.3,30.32,North,5,1.0,15.0,85,0.00,,,0.00,Wunderground v.1.15,2013-12-29 17:50:00,
2013-12-29 14:00:00,20.7,16.9,30.31,SW,223,1.0,15.0,85,0.00,,,0.00,Wunderground v.1.15,2013-12-29 18:00:00,
2013-12-29 14:10:00,20.3,16.5,30.30,NNW,334,1.0,15.0,85,0.00,,,0.00,Wunderground v.1.15,2013-12-29 18:10:00,
2013-12-29 14:20:00,20.0,16.5,30.30,North,354,1.0,15.0,86,0.00,,,0.00,Wunderground v.1.15,2013-12-29 18:20:00,
2013-12-29 14:30:00,19.7,16.2,30.30,NNW,338,1.0,15.0,86,0.00,,,0.00,Wunderground v.1.15,2013-12-29 18:30:00,
2013-12-29 14:40:00,19.4,16.2,30.30,North,4,1.0,15.0,87,0.00,,,0.00,Wunderground v.1.15,2013-12-29 18:40:00,
2013-12-29 14:50:00,19.2,16.0,30.30,NNW,330,1.0,1.0,87,0.00,,,0.00,Wunderground v.1.15,2013-12-29 18:50:00,
2013-12-29 15:00:00,19.1,15.9,30.30,West,278,1.0,15.0,87,0.00,,,0.00,Wunderground v.1.15,2013-12-29 19:00:00,
2013-12-29 15:10:00,19.0,15.5,30.31,NW,306,1.0,1.0,86,0.00,,,0.00,Wunderground v.1.15,2013-12-29 19:10:00,
2013-12-29 15:20:00,18.9,15.4,30.31,WNW,287,1.0,15.0,86,0.00,,,0.00,Wunderground v.1.15,2013-12-29 19:20:00,
2013-12-29 15:30:00,18.9,15.4,30.31,ENE,75,1.0,1.0,86,0.00,,,0.00,Wunderground v.1.15,2013-12-29 19:30:00,
2013-12-29 15:40:00,18.7,15.2,30.31,ENE,64,2.0,15.0,86,0.00,,,0.00,Wunderground v.1.15,2013-12-29 19:40:00,
2013-12-29 15:50:00,18.6,15.1,30.32,East,97,2.0,15.0,86,0.00,,,0.00,Wunderground v.1.15,2013-12-29 19:50:00,
2013-12-29 16:00:00,18.5,15.0,30.32,ENE,75,2.0,2.0,86,0.00,,,0.00,Wunderground v.1.15,2013-12-29 20:00:00,
2013-12-29 16:10:00,18.4,14.6,30.31,East,88,2.0,15.0,85,0.00,,,0.00,Wunderground v.1.15,2013-12-29 20:10:00,
2013-12-29 16:20:00,18.3,14.8,30.30,SSE,159,3.0,3.0,86,0.00,,,0.00,Wunderground v.1.15,2013-12-29 20:20:00,
2013-12-29 16:30:00,18.3,14.8,30.29,East,91,2.0,15.0,86,0.00,,,0.00,Wunderground v.1.15,2013-12-29 20:30:00,
2013-12-29 16:40:00,18.2,14.7,30.29,East,89,3.0,15.0,86,0.00,,,0.00,Wunderground v.1.15,2013-12-29 20:40:00,
2013-12-29 16:50:00,18.1,14.6,30.28,East,94,3.0,3.0,86,0.00,,,0.00,Wunderground v.1.15,2013-12-29 20:50:00,
2013-12-29 17:00:00,18.1,14.6,30.28,NE,49,3.0,15.0,86,0.00,,,0.00,Wunderground v.1.15,2013-12-29 21:00:00,
2013-12-29 17:10:00,18.1,14.6,30.28,NE,54,4.0,4.0,86,0.00,,,0.00,Wunderground v.1.15,2013-12-29 21:10:00,
2013-12-29 17:20:00,18.1,14.4,30.29,ESE,105,3.0,15.0,85,0.00,,,0.00,Wunderground v.1.15,2013-12-29 21:20:00,
2013-12-29 17:30:00,18.1,14.4,30.29,NE,50,3.0,3.0,85,0.00,,,0.00,Wunderground v.1.15,2013-12-29 21:30:00,
2013-12-29 17:40:00,18.0,14.3,30.28,ESE,109,3.0,15.0,85,0.00,,,0.00,Wunderground v.1.15,2013-12-29 21:40:00,
2013-12-29 17:50:00,18.0,14.3,30.28,ENE,65,4.0,4.0,85,0.00,,,0.00,Wunderground v.1.15,2013-12-29 21:50:00,
2013-12-29 18:00:00,18.0,14.5,30.27,ENE,77,4.0,15.0,86,0.00,,,0.00,Wunderground v.1.15,2013-12-29 22:00:00,
2013-12-29 18:10:00,18.0,14.5,30.28,East,92,4.0,15.0,86,0.00,,,0.00,Wunderground v.1.15,2013-12-29 22:10:00,
2013-12-29 18:20:00,18.1,14.6,30.28,ENE,75,3.0,15.0,86,0.00,,,0.00,Wunderground v.1.15,2013-12-29 22:20:00,
2013-12-29 18:30:00,18.1,14.4,30.27,East,82,4.0,15.0,85,0.00,,,0.00,Wunderground v.1.15,2013-12-29 22:30:00,
2013-12-29 18:40:00,18.2,14.4,30.27,East,86,3.0,15.0,85,0.00,,,0.00,Wunderground v.1.15,2013-12-29 22:40:00,
2013-12-29 18:50:00,18.2,14.4,30.27,ENE,57,4.0,15.0,85,0.00,,,0.00,Wunderground v.1.15,2013-12-29 22:50:00,
2013-12-29 19:00:00,18.2,14.4,30.26,East,85,4.0,4.0,85,0.00,,,0.00,Wunderground v.1.15,2013-12-29 23:00:00,
2013-12-29 19:10:00,18.3,14.8,30.26,NE,54,4.0,15.0,86,0.00,,,0.00,Wunderground v.1.15,2013-12-29 23:10:00,
2013-12-29 19:20:00,18.3,15.1,30.25,North,8,3.0,3.0,87,0.00,,,0.00,Wunderground v.1.15,2013-12-29 23:20:00,
2013-12-29 19:30:00,18.3,15.1,30.25,East,85,3.0,15.0,87,0.00,,,0.00,Wunderground v.1.15,2013-12-29 23:30:00,
2013-12-29 19:40:00,18.2,15.5,30.25,ENE,77,3.0,15.0,89,0.00,,,0.00,Wunderground v.1.15,2013-12-29 23:40:00,
2013-12-29 19:50:00,18.2,15.8,30.25,ENE,70,3.0,15.0,90,0.00,,,0.00,Wunderground v.1.15,2013-12-29 23:50:00,
2013-12-29 20:00:00,18.2,16.0,30.24,NE,49,3.0,3.0,91,0.00,,,0.00,Wunderground v.1.15,2013-12-30 00:00:00,
2013-12-29 20:10:00,18.3,16.4,30.24,NE,36,3.0,15.0,92,0.00,,,0.00,Wunderground v.1.15,2013-12-30 00:10:00,
2013-12-29 20:20:00,18.4,16.5,30.23,ENE,66,4.0,4.0,92,0.00,,,0.00,Wunderground v.1.15,2013-12-30 00:20:00,
2013-12-29 20:30:00,18.5,16.8,30.22,NE,44,2.0,15.0,93,0.00,,,0.00,Wunderground v.1.15,2013-12-30 00:30:00,
2013-12-29 20:40:00,18.4,16.7,30.22,East,88,3.0,15.0,93,0.00,,,0.00,Wunderground v.1.15,2013-12-30 00:40:00,
2013-12-29 20:50:00,18.4,16.7,30.21,ENE,72,3.0,15.0,93,0.00,,,0.00,Wunderground v.1.15,2013-12-30 00:50:00,
2013-12-29 21:00:00,18.4,16.7,30.20,East,85,3.0,3.0,93,0.00,,,0.00,Wunderground v.1.15,2013-12-30 01:00:00,
2013-12-29 21:10:00,18.5,16.8,30.19,NE,43,3.0,15.0,93,0.00,,,0.00,Wunderground v.1.15,2013-12-30 01:10:00,
2013-12-29 21:20:00,18.5,16.8,30.18,NE,54,3.0,15.0,93,0.00,,,0.00,Wunderground v.1.15,2013-12-30 01:20:00,
2013-12-29 21:30:00,18.5,16.8,30.17,ESE,104,3.0,15.0,93,0.00,,,0.00,Wunderground v.1.15,2013-12-30 01:30:00,
2013-12-29 21:40:00,18.6,16.9,30.16,NE,39,3.0,15.0,93,0.00,,,0.00,Wunderground v.1.15,2013-12-30 01:40:00,
2013-12-29 21:50:00,18.6,16.9,30.16,ENE,77,3.0,3.0,93,0.00,,,0.00,Wunderground v.1.15,2013-12-30 01:50:00,
2013-12-29 22:00:00,18.7,17.0,30.15,NE,44,2.0,2.0,93,0.00,,,0.00,Wunderground v.1.15,2013-12-30 02:00:00,
2013-12-29 22:10:00,18.8,17.1,30.13,ENE,70,2.0,2.0,93,0.00,,,0.00,Wunderground v.1.15,2013-12-30 02:10:00,
2013-12-29 22:20:00,18.9,17.2,30.13,ENE,77,2.0,15.0,93,0.00,,,0.00,Wunderground v.1.15,2013-12-30 02:20:00,
2013-12-29 22:30:00,19.0,17.3,30.11,East,84,2.0,15.0,93,0.00,,,0.00,Wunderground v.1.15,2013-12-30 02:30:00,
2013-12-29 22:40:00,19.1,17.4,30.10,East,81,1.0,1.0,93,0.00,,,0.00,Wunderground v.1.15,2013-12-30 02:40:00,
2013-12-29 22:50:00,19.2,17.5,30.09,SSW,200,0.0,15.0,93,0.00,,,0.00,Wunderground v.1.15,2013-12-30 02:50:00,
2013-12-29 23:00:00,19.4,18.0,30.08,ENE,70,1.0,15.0,94,0.00,,,0.00,Wunderground v.1.15,2013-12-30 03:00:00,
2013-12-29 23:10:00,19.6,18.2,30.07,ESE,107,1.0,1.0,94,0.00,,,0.00,Wunderground v.1.15,2013-12-30 03:10:00,
2013-12-29 23:20:00,19.8,18.4,30.06,ENE,67,1.0,15.0,94,0.00,,,0.00,Wunderground v.1.15,2013-12-30 03:20:00,
2013-12-29 23:30:00,20.0,18.6,30.06,ENE,72,1.0,1.0,94,0.00,,,0.00,Wunderground v.1.15,2013-12-30 03:30:00,
2013-12-29 23:40:00,20.4,18.9,30.04,East,84,1.0,1.0,94,0.00,,,0.00,Wunderground v.1.15,2013-12-30 03:40:00,
2013-12-29 23:50:00,21.3,20.1,30.03,East,98,2.0,15.0,95,0.00,,,0.00,Wunderground v.1.15,2013-12-30 03:50:00,